Location: La Pernelle
(49.6188°N, 1.2999°W)
Time: 12:14:12
(UTC+00:00)

Cosmos 1954 Rocket - Pass Details

Date: 31 October 2021
Orbit: 751 x 782 km, 74.0° (Epoch: 26 November)

Event Time Altitude Azimuth Distance (km) Brightness Sun altitude
Rises 19:05:12 0° 333° (NNW) 3,247 7.7 -23.2°
Reaches altitude 10° 19:07:37 10° 328° (NNW) 2,321 6.9 -23.6°
Maximum altitude 19:12:44 53° 253° (WSW) 951 4.7 -24.4°
Drops below altitude 10° 19:17:51 10° 178° (S) 2,322 6.4 -25.3°
Enters shadow 19:17:51 10° 178° (S) 2,325 6.4 -25.3°
